Regional Weather Roundup
Issued by NWS

Home | Current Version | Previous Version | Text Only | Print | Product List | Glossary On
Versions: 1 2 3 4 5 6 7 8 9 10 11 12 13 14 15 16 17 18 19 20 21 22 23 24 25 26 27 28 29 30 31 32 33 34 35 36 37 38 39 40 41 42 43 44 45 46 47 48 49 50
000
ASUS43 KMPX 270801
RWRMN
WEATHER ROUNDUP FOR MINNESOTA
NATIONAL WEATHER SERVICE TWIN CITIES/CHANHASSEN MN
300 AM CDT FRI APR 27 2018


NOTE: "FAIR" INDICATES FEW OR NO CLOUDS BELOW 12,000 FEET WITH NO
SIGNIFICANT WEATHER AND/OR OBSTRUCTIONS TO VISIBILITY. N/A MEANS
CURRENT SKY AND/OR WEATHER CONDITIONS ARE NOT AVAILABLE.

MNZ060>063-068>070-270900-
   Twin Cities Metro

CITY           SKY/WX    TMP DP  RH WIND       PRES   REMARKS
TWIN CITIES    FAIR      44  30  57 SW5       29.88F
ST PAUL        FAIR      42  32  67 CALM      29.89F
CRYSTAL        CLOUDY    39  28  64 CALM      29.87F
BLAINE         MOCLDY    43  30  61 CALM      29.87S
LAKEVILLE      FAIR      39  30  70 W5        29.88F
EDEN PRAIRIE   MOCLDY    40  30  67 SW6       29.87F
SOUTH ST PAUL  FAIR      43  28  55 W7        29.87F
LAKE ELMO      FAIR      34  30  86 CALM      29.88S
$$
MNZ001>005-007-008-013>017-022>024-027-028-270900-
   Northwest Minnesota

CITY           SKY/WX    TMP DP  RH WIND       PRES   REMARKS
BEMIDJI        FAIR      41  27  57 S5        29.73F
HALLOCK        FAIR      39  30  70 CALM      29.77R
ROSEAU         FAIR      43  34  70 SW6       29.74S
WARROAD        FAIR      43  36  75 CALM      29.74S
THIEF RVR FALL FAIR      40  32  73 W5        29.73F
CROOKSTON      FAIR      43  34  70 W6        29.74S
FOSSTON        FAIR      39  30  70 SW6       29.74S
DETROIT LAKES  FAIR      45  32  61 S6        29.76F
MOORHEAD       FAIR      46  32  57 W8        29.77F
PARK RAPIDS    FAIR      42  30  62 S10       29.74F
MAHNOMEN       FAIR      41  32  70 SW13      29.73F
$$
MNZ006-009>011-018-025>026-270900-
   North Central Minnesota

CITY           SKY/WX    TMP DP  RH WIND       PRES   REMARKS
BAUDETTE       CLOUDY    44  35  70 S3        29.74F
FLAG ISLAND    FAIR      36  32  87 S5        29.72S
INTL FALLS     FAIR      37  27  67 CALM      29.77F
WASKISH        DRIZZLE   36  34  93 E8        29.77F
BIG FORK       CLOUDY    37  21  52 CALM      29.79R
LONGVILLE      CLOUDY    37  30  75 CALM      29.78F
GRAND RAPIDS   LGT RAIN  37  33  85 S5        29.79F
CRANE LAKE     CLOUDY    30  27  86 CALM      29.81F
ORR            CLOUDY    37  28  70 CALM      29.76F
COOK           CLOUDY    36  28  75 CALM      29.78F
WALKER         CLOUDY    41  26  55 SE8       29.75F
$$
MNZ012-019>021-037-270900-
   Northeast Minnesota

CITY           SKY/WX    TMP DP  RH WIND       PRES   REMARKS
DULUTH         CLOUDY    34  24  67 CALM      29.82S
ELY            MOCLDY    28  25  86 SE5       29.80F WCI  23
HIBBING        MOCLDY    29  23  78 SE5       29.79F WCI  24
EVELETH        FAIR      32  24  74 CALM      29.82F
DULUTH HARBOR  CLOUDY    36  30  80 NE3       29.86R
TWO HARBORS    FAIR      34  28  80 CALM      29.82S
SILVER BAY     FAIR      28  25  86 CALM      29.82S
GRAND MARAIS     N/A     37  32  82 NE6       29.87S
G MARAIS ARPRT CLOUDY    32  27  80 E5        29.83S WCI  27
$$
MNZ029>031-032-039>041-046>048-054>057-064-270900-
   West Central Minnesota

CITY           SKY/WX    TMP DP  RH WIND       PRES   REMARKS
FERGUS FALLS   MOCLDY    41  34  75 SW6       29.77S
WHEATON        PTCLDY    46  30  53 SW17      29.80F
MORRIS         PTCLDY    41  34  75 SW12      29.80F
ALEXANDRIA     FAIR      46  32  58 SW15      29.81F
ELBOW LAKE     CLOUDY    40  34  78 S10       29.79F
WADENA         FAIR      43  28  56 CALM      29.79S
GLENWOOD       FAIR      41  34  75 SW14      29.82F
APPLETON       PTCLDY    45  34  65 SW9       29.83F
BENSON         PTCLDY    43  34  70 SW10      29.84F
ORTONVILLE     PTCLDY    46  32  57 SW13      29.82F
MADISON        PTCLDY    45  36  70 SW10      29.84F
WILLMAR        FAIR      37  32  81 CALM      29.88F
$$
MNZ033>034-036-042>043-049>051-058-059-270900-
   Central Minnesota

CITY           SKY/WX    TMP DP  RH WIND       PRES   REMARKS
ST CLOUD       MOCLDY    40  30  67 CALM      29.84F
SAUK CENTRE    FAIR      40  30  68 S8        29.82F
PAYNESVILLE    FAIR      43  31  63 SW9       29.84F
AITKIN         LGT RAIN  37  28  70 SE5       29.80F
PINE RIVER     MOCLDY    37  27  65 SE6       29.82F
BRAINERD       CLOUDY    42  27  55 S6        29.81F
STAPLES        CLOUDY    43  28  56 S3        29.80F
LONG PRAIRIE   CLOUDY    39  30  70 S6        29.82F
LITTLE FALLS   CLOUDY    41  25  52 S5        29.82F
LITCHFIELD     FAIR      41  32  70 SW3       29.86F
BUFFALO        CLOUDY    39  29  67 SE5       29.86F
MAPLE LAKE     MOCLDY    38  31  77 CALM      29.85F
HUTCHINSON     FAIR      38  32  79 SW3       29.87F
$$
MNZ037-044-045-052-053-270900-
   East Central Minnesota

CITY           SKY/WX    TMP DP  RH WIND       PRES   REMARKS
PRINCETON      MOCLDY    37  30  75 E6        29.84F
MORA           FAIR      36  28  75 CALM      29.86F
CAMBRIDGE      CLOUDY    39  28  65 CALM      29.86F
RUSH CITY      CLOUDY    40  26  56 W3        29.85F
MOOSE LAKE     MIX PCPN  32  27  80 N3        29.83S
HINCKLEY       CLOUDY    37  27  65 CALM      29.84F
CLOQUET        CLOUDY    39  19  45 W8        29.83S
MCGREGOR       CLOUDY    36  30  80 CALM      29.83F
$$
MNZ071>073-080-081-089-090-097-098-270900-
   Southwest Minnesota

CITY           SKY/WX    TMP DP  RH WIND       PRES   REMARKS
MONTEVIDEO     PTCLDY    43  34  70 SW13      29.85F
GRANITE FALLS  CLEAR     40  35  82 S10       29.88F
CANBY          CLEAR     48  33  54 SW16G23   29.86F
MARSHALL       PTCLDY    42  33  70 SW13      29.88F
REDWOOD FALLS  CLEAR     39  33  79 SW12      29.88F
OLIVIA         CLEAR     36  34  93 SW9       29.86F
PIPESTONE      CLEAR    N/A N/A N/A SW9       29.92F
WINDOM         CLEAR     37  21  52 SW7       29.93F
WORTHINGTON    CLEAR     39  33  79 SW9       29.95F
JACKSON        PTCLDY    37  32  81 CALM      29.94F
TRACY          PTCLDY    43  35  73 SW17      29.89F
SLAYTON        PTCLDY    37  33  83 S8        29.94F
$$
MNZ065>067-074>077-082>085-091>093-270900-
   South Central Minnesota

CITY           SKY/WX    TMP DP  RH WIND       PRES   REMARKS
MANKATO        FAIR      41  29  62 SW7       29.91F
NEW ULM        CLEAR     36  30  80 SW6       29.90F
ST JAMES       CLEAR     37  34  87 SW8       29.92F
FAIRMONT       CLEAR     38  32  79 W8        29.93F
GLENCOE        FAIR      40  31  69 SW5       29.88F
OWATONNA       FAIR      36  30  80 SW8       29.90F
WASECA         FAIR      34  28  80 SW3       29.92F
ALBERT LEA     FAIR      37  27  65 W3        29.91F
$$
MNZ078>079-086>088-094>096-270900-
   Southeast Minnesota

CITY           SKY/WX    TMP DP  RH WIND       PRES   REMARKS
ROCHESTER      FAIR      40  30  67 W7        29.88F
RED WING       FAIR      36  23  60 W3        29.87S
STANTON        FAIR      34  29  81 S6        29.87F WCI  29
DODGE CENTER   FAIR      37  28  70 W5        29.89F
WINONA         FAIR      41  34  75 CALM      29.86F
AUSTIN         FAIR      37  28  70 CALM      29.90F
PRESTON        FAIR      38  31  74 NW5       29.89F
$$
ABBREVIATIONS USED IN REMARKS
   TC - TEMPERATURES IN CELSIUS
  WCI - WIND CHILL INDEX
   HX - HEAT INDEX
  VSB - VISIBILITY
$$




USA.gov is the U.S. government's official web portal to all federal, state and local government web resources and services.